Weather History for Frankfort, MI

Change the Weather History Date:

Friday, September 27, 2013

  Actual Average (KTVC) Record (KTVC)
Temperature  
Mean Temperature 59 °F 55 °F  
Max Temperature 74 °F 65 °F 88 °F (1909)
Min Temperature 44 °F 46 °F 27 °F (1989)
Degree Days  
Heating Degree Days 6 10  
Month to date heating degree days 161  
Since 1 July heating degree days 230  
Cooling Degree Days 0 1  
Month to date cooling degree days 39  
Year to date cooling degree days 408  
Growing Degree Days 9 (Base 50)    
Moisture  
Dew Point 48 °F    
Average Humidity 71    
Maximum Humidity 92    
Minimum Humidity 36    
Precipitation  
Precipitation 0.00 in 0.11 in 0.75 in (1996)
Month to date precipitation 3.20  
Year to date precipitation 24.31  
Sea Level Pressure  
Sea Level Pressure 30.16 in    
Wind  
Wind Speed 1 mph (SSW)    
Max Wind Speed 10 mph    
Max Gust Speed 16 mph    
Visibility 10 miles    
Events      
T = Trace of Precipitation, MM = Missing Value Source: NWS Daily Summary

Daily Weather History Graph

Daily Weather History Graph

Search for Another Location

Airport:

Trip Planner

Search our weather history database for the weather conditions in past years. The results will help you decide how hot, cold, wet, or windy it might be!

Date:

Astronomy

Sep. 27, 2013 Rise Set
Actual Time 7:38 AM EDT 7:32 PM EDT
Civil Twilight 7:09 AM EDT 8:01 PM EDT
Nautical Twilight 6:35 AM EDT 8:35 PM EDT
Astronomical Twilight 6:00 AM EDT 9:09 PM EDT
Moon 12:20 AM EDT (9/27) 3:23 PM EDT (9/27)
Length of Visible Light 12h 52m
Length of Day
11h 54m
Last Quarter, 45% of the Moon is Illuminated
Sep 27
Last Quarter
Oct 4
New
Oct 11
First Quarter
Oct 18
Full
Oct 26
Last Quarter

Hourly Weather History & Observations

Time (EDT) Temp. Dew Point Humidity Pressure Visibility Wind Dir Wind Speed Gust Speed Precip Events Conditions
12:11 AM 47.5 °F 45.1 °F 92% 30.13 in 10.0 mi Calm Calm - N/A   Clear
12:31 AM 46.9 °F 44.8 °F 92% 30.13 in 10.0 mi Calm Calm - N/A   Clear
12:52 AM 45.7 °F 43.3 °F 92% 30.14 in 10.0 mi Calm Calm - N/A   Clear
1:12 AM 44.8 °F 42.3 °F 91% 30.14 in 10.0 mi Calm Calm - N/A   Clear
1:32 AM 45.7 °F 43.0 °F 90% 30.14 in 10.0 mi Calm Calm - N/A   Clear
1:52 AM 45.7 °F 43.2 °F 91% 30.14 in 10.0 mi Calm Calm - N/A   Clear
2:12 AM 46.0 °F 43.7 °F 92% 30.14 in 10.0 mi Calm Calm - N/A   Clear
2:32 AM 46.0 °F 43.0 °F 89% 30.15 in 10.0 mi Calm Calm - N/A   Clear
2:52 AM 45.3 °F 43.0 °F 92% 30.15 in 10.0 mi Calm Calm - N/A   Clear
3:12 AM 45.9 °F 43.7 °F 92% 30.15 in 10.0 mi Calm Calm - N/A   Clear
3:33 AM 46.2 °F 43.7 °F 91% 30.15 in 10.0 mi Calm Calm - N/A   Clear
3:53 AM 46.4 °F 43.0 °F 88% 30.15 in 10.0 mi Calm Calm - N/A   Clear
4:13 AM 45.7 °F 42.8 °F 90% 30.15 in 10.0 mi Calm Calm - N/A   Clear
4:33 AM 46.4 °F 44.1 °F 92% 30.15 in 10.0 mi Calm Calm - N/A   Clear
4:53 AM 45.9 °F 43.7 °F 92% 30.16 in 10.0 mi Calm Calm - N/A   Clear
5:13 AM 46.6 °F 44.1 °F 91% 30.16 in 10.0 mi Calm Calm - N/A   Clear
5:33 AM 48.2 °F 45.5 °F 90% 30.16 in 10.0 mi Calm Calm - N/A   Clear
5:53 AM 47.5 °F 44.6 °F 90% 30.16 in 10.0 mi Calm Calm - N/A   Clear
6:13 AM 48.4 °F 44.4 °F 86% 30.17 in 10.0 mi Calm Calm - N/A   Clear
6:33 AM 47.1 °F 44.2 °F 90% 30.17 in 10.0 mi Calm Calm - N/A   Clear
6:53 AM 49.5 °F 46.9 °F 91% 30.17 in 10.0 mi SE 3.5 mph - N/A   Clear
7:13 AM 50.4 °F 46.0 °F 85% 30.18 in 10.0 mi Calm Calm - N/A   Clear
7:34 AM 48.9 °F 45.1 °F 87% 30.18 in 10.0 mi Calm Calm - N/A   Clear
7:54 AM 48.2 °F 44.8 °F 88% 30.19 in 10.0 mi Calm Calm - N/A   Clear
8:14 AM 50.5 °F 46.9 °F 87% 30.19 in 10.0 mi Calm Calm - N/A   Clear
8:34 AM 52.2 °F 48.4 °F 87% 30.19 in 10.0 mi Calm Calm - N/A   Clear
8:54 AM 56.5 °F 51.1 °F 82% 30.19 in 10.0 mi Calm Calm - N/A   Clear
9:14 AM 58.8 °F 50.5 °F 74% 30.19 in 10.0 mi Calm Calm - N/A   Clear
9:34 AM 60.6 °F 50.7 °F 70% 30.20 in 10.0 mi Calm Calm - N/A   Clear
9:55 AM 63.5 °F 50.9 °F 63% 30.20 in 10.0 mi ESE 3.5 mph - N/A   Clear
10:15 AM 65.5 °F 49.3 °F 56% 30.20 in 10.0 mi Calm Calm - N/A   Clear
10:35 AM 67.3 °F 49.5 °F 53% 30.20 in 10.0 mi SE 4.6 mph - N/A   Clear
10:55 AM 69.3 °F 46.9 °F 45% 30.20 in 10.0 mi SSE 4.6 mph - N/A   Clear
11:15 AM 70.3 °F 46.9 °F 43% 30.20 in 10.0 mi SSE 4.6 mph - N/A   Clear
11:35 AM 71.8 °F 45.3 °F 39% 30.20 in 10.0 mi South 5.8 mph - N/A   Clear
11:55 AM 72.9 °F 44.6 °F 36% 30.20 in 10.0 mi South 8.1 mph - N/A   Clear
12:15 PM 73.0 °F 44.6 °F 36% 30.21 in 10.0 mi South 10.4 mph - N/A   Clear
12:35 PM 72.9 °F 46.6 °F 39% 30.20 in 10.0 mi South 10.4 mph 16.1 mph N/A   Clear
12:55 PM 73.4 °F 46.9 °F 39% 30.20 in 10.0 mi SSW 6.9 mph - N/A   Clear
1:16 PM 74.7 °F 48.4 °F 39% 30.19 in 10.0 mi SSW 6.9 mph - N/A   Clear
1:36 PM 74.5 °F 50.4 °F 43% 30.18 in 10.0 mi WSW 8.1 mph - N/A   Clear
1:56 PM 73.4 °F 52.0 °F 47% 30.18 in 10.0 mi SW 6.9 mph - N/A   Clear
2:16 PM 73.9 °F 52.0 °F 46% 30.17 in 10.0 mi SW 4.6 mph - N/A   Clear
2:36 PM 71.6 °F 51.6 °F 49% 30.17 in 10.0 mi WSW 10.4 mph - N/A   Clear
2:56 PM 71.8 °F 52.0 °F 50% 30.16 in 10.0 mi WSW 6.9 mph - N/A   Clear
3:11 PM 72.0 °F 51.8 °F 49% 30.16 in 10.0 mi SW 4.6 mph - N/A   Clear
3:31 PM 72.5 °F 51.8 °F 48% 30.15 in 10.0 mi SW 6.9 mph - N/A   Clear
3:51 PM 72.0 °F 51.8 °F 49% 30.15 in 10.0 mi WSW 4.6 mph - N/A   Clear
4:11 PM 71.2 °F 53.4 °F 53% 30.15 in 10.0 mi WSW 4.6 mph - N/A   Clear
4:32 PM 70.9 °F 53.4 °F 54% 30.15 in 10.0 mi WSW 4.6 mph - N/A   Clear
4:52 PM 71.4 °F 52.7 °F 52% 30.14 in 10.0 mi WSW 5.8 mph - N/A   Clear
5:12 PM 70.3 °F 51.3 °F 51% 30.14 in 10.0 mi SSW 4.6 mph - N/A   Clear
5:32 PM 70.5 °F 50.4 °F 49% 30.13 in 10.0 mi SW 4.6 mph - N/A   Clear
5:52 PM 69.3 °F 50.5 °F 51% 30.13 in 10.0 mi SSW 3.5 mph - N/A   Clear
6:12 PM 67.8 °F 50.5 °F 54% 30.13 in 10.0 mi SSW 3.5 mph - N/A   Clear
6:32 PM 68.4 °F 50.0 °F 52% 30.13 in 10.0 mi South 3.5 mph - N/A   Clear
6:52 PM 67.6 °F 50.2 °F 54% 30.13 in 10.0 mi SSE 3.5 mph - N/A   Clear
7:12 PM 65.1 °F 51.6 °F 62% 30.13 in 10.0 mi Calm Calm - N/A   Clear
7:33 PM 61.7 °F 51.6 °F 69% 30.13 in 10.0 mi Calm Calm - N/A   Clear
7:53 PM 59.7 °F 50.5 °F 72% 30.13 in 10.0 mi Calm Calm - N/A   Clear
8:13 PM 57.7 °F 49.1 °F 73% 30.13 in 10.0 mi Calm Calm - N/A   Clear
8:33 PM 56.3 °F 49.3 °F 77% 30.13 in 10.0 mi Calm Calm - N/A   Clear
8:53 PM 54.3 °F 49.1 °F 83% 30.13 in 10.0 mi Calm Calm - N/A   Clear
9:13 PM 53.2 °F 48.6 °F 84% 30.13 in 10.0 mi Calm Calm - N/A   Clear
9:33 PM 51.8 °F 49.1 °F 90% 30.13 in 10.0 mi Calm Calm - N/A   Clear
9:53 PM 52.3 °F 48.7 °F 88% 30.13 in 10.0 mi Calm Calm - N/A   Clear
10:13 PM 50.5 °F 48.0 °F 91% 30.13 in 10.0 mi Calm Calm - N/A   Clear
10:33 PM 50.9 °F 47.8 °F 89% 30.13 in 10.0 mi Calm Calm - N/A   Clear
10:54 PM 49.8 °F 47.3 °F 91% 30.13 in 10.0 mi Calm Calm - N/A   Clear
11:14 PM 51.1 °F 47.3 °F 87% 30.13 in 10.0 mi Calm Calm - N/A   Clear
11:34 PM 50.0 °F 46.6 °F 88% 30.13 in 10.0 mi Calm Calm - N/A   Clear
11:54 PM 50.5 °F 47.7 °F 90% 30.13 in 10.0 mi Calm Calm - N/A   Clear